Вернуться в каталог

CZ-6A DEB

АктивенSSO
NORAD 56639·DEBRIS·🇨🇳 China

Запущен Nov 11, 2022 с Taiyuan Satellite Launch Center

Loading…

Ближайшие Пролёты (ближайшие 24 часа)

TLE

УстаревшееSource: Space-Track

Эпоха: Aug 15, 2026, 20:10 UTC

1 56639U 22151AFP 26227.84097028  .00000156  00000-0  79404-4 0  9997
2 56639  98.7423 264.9752 0039826 200.6234 159.3342 14.28710096172852

Отслеживайте CZ-6A DEB в реальном времени с AllMySat

Download on the App Store